NAPEX1 EGKK-EDDK

Flight info

Callsign NAPEX1
Flight time N/A
Altitude 33000
Route ODVIK2Z ODVIK Y311 DVR/N0423F230 L9 KONAN UL607 SPI T857 DENOV T861 ERUKI DCT
Aircraft C25C/L-SG/L

Departure

Time 2026-05-06 20:22
Airport London Gatwick Airport (EGKK)

Arrival

Time N/A
Airport Cologne Bonn Airport (EDDK)
Time Latitude Longitude Altitude Speed Heading
2026-05-06 19:58 51.15466 -0.17086 203 ft 0 kts 348°
2026-05-06 20:08 51.15461 -0.17084 197 ft 2 kts 348°
2026-05-06 20:08 51.15445 -0.17079 203 ft 2 kts 348°
2026-05-06 20:09 51.15429 -0.17073 201 ft 2 kts 348°
2026-05-06 20:09 51.15419 -0.17061 198 ft 2 kts 264°
2026-05-06 20:09 51.15419 -0.17060 207 ft 0 kts 261°
2026-05-06 20:12 51.15410 -0.17109 197 ft 9 kts 253°
2026-05-06 20:12 51.15379 -0.17236 197 ft 15 kts 253°
2026-05-06 20:12 51.15343 -0.17356 204 ft 0 kts 206°
2026-05-06 20:13 51.15309 -0.17399 198 ft 13 kts 241°
2026-05-06 20:13 51.15282 -0.17585 201 ft 20 kts 257°
2026-05-06 20:13 51.15277 -0.17620 199 ft 7 kts 257°
2026-05-06 20:14 51.15254 -0.17786 203 ft 24 kts 257°
2026-05-06 20:14 51.15213 -0.18078 204 ft 29 kts 257°
2026-05-06 20:14 51.15170 -0.18412 198 ft 32 kts 261°
2026-05-06 20:14 51.15125 -0.18765 202 ft 33 kts 258°
2026-05-06 20:15 51.15075 -0.19130 198 ft 34 kts 257°
2026-05-06 20:15 51.15025 -0.19495 203 ft 33 kts 258°
2026-05-06 20:15 51.14975 -0.19859 197 ft 34 kts 257°
2026-05-06 20:15 51.14924 -0.20231 200 ft 35 kts 257°
2026-05-06 20:16 51.14871 -0.20608 195 ft 35 kts 257°
2026-05-06 20:16 51.14821 -0.20981 196 ft 34 kts 258°
2026-05-06 20:16 51.14771 -0.21277 195 ft 24 kts 257°
2026-05-06 20:16 51.14751 -0.21378 204 ft 6 kts 232°
2026-05-06 20:17 51.14714 -0.21399 197 ft 0 kts 174°
2026-05-06 20:18 51.14661 -0.21357 194 ft 14 kts 139°
2026-05-06 20:19 51.14616 -0.21324 195 ft 0 kts 166°
2026-05-06 20:20 51.14611 -0.21322 195 ft 8 kts 166°
2026-05-06 20:21 51.14520 -0.21196 202 ft 27 kts 95°
2026-05-06 20:21 51.14539 -0.21000 199 ft 0 kts 77°
2026-05-06 20:21 51.14550 -0.20920 199 ft 45 kts 77°
2026-05-06 20:22 51.14708 -0.19766 280 ft 159 kts 78°
2026-05-06 20:22 51.14994 -0.17691 1060 ft 224 kts 76°
2026-05-06 20:22 51.15360 -0.15041 2107 ft 258 kts 76°
2026-05-06 20:22 51.15726 -0.12281 3137 ft 253 kts 77°
2026-05-06 20:23 51.16078 -0.09520 4415 ft 257 kts 77°
2026-05-06 20:23 51.16423 -0.06726 5221 ft 247 kts 77°
2026-05-06 20:23 51.16738 -0.04039 5254 ft 248 kts 79°
2026-05-06 20:23 51.16833 -0.01290 5256 ft 249 kts 89°
2026-05-06 20:24 51.16829 0.01436 5211 ft 250 kts 90°
2026-05-06 20:24 51.16763 0.04213 5216 ft 251 kts 92°
2026-05-06 20:24 51.16708 0.06995 5217 ft 252 kts 91°
2026-05-06 20:24 51.16652 0.09784 5215 ft 252 kts 91°
2026-05-06 20:25 51.16607 0.12584 5212 ft 253 kts 91°
2026-05-06 20:25 51.16553 0.15390 5209 ft 253 kts 89°
2026-05-06 20:25 51.16641 0.18181 5208 ft 253 kts 89°
2026-05-06 20:25 51.16573 0.20981 5206 ft 253 kts 92°
2026-05-06 20:26 51.16565 0.23778 5204 ft 253 kts 88°
2026-05-06 20:26 51.16570 0.26613 5944 ft 252 kts 90°
2026-05-06 20:26 51.16583 0.29365 7533 ft 251 kts 89°
2026-05-06 20:26 51.16590 0.32198 8776 ft 260 kts 89°
2026-05-06 20:27 51.16590 0.35127 10032 ft 268 kts 89°
2026-05-06 20:27 51.16588 0.38124 11195 ft 273 kts 89°
2026-05-06 20:27 51.16588 0.41143 12385 ft 278 kts 89°
2026-05-06 20:27 51.16588 0.44252 13585 ft 283 kts 89°
2026-05-06 20:28 51.16584 0.47425 14648 ft 289 kts 89°
2026-05-06 20:28 51.16585 0.50657 15665 ft 295 kts 89°
2026-05-06 20:28 51.16613 0.53946 16689 ft 300 kts 88°
2026-05-06 20:28 51.16664 0.57296 17734 ft 305 kts 87°
2026-05-06 20:29 51.16747 0.60710 18724 ft 311 kts 86°
2026-05-06 20:29 51.16853 0.64176 19699 ft 316 kts 86°
2026-05-06 20:29 51.16991 0.67695 20698 ft 321 kts 85°
2026-05-06 20:29 51.17095 0.70056 21370 ft 324 kts 85°
2026-05-06 20:30 51.17278 0.73659 22388 ft 330 kts 85°
2026-05-06 20:30 51.17815 0.82277 24477 ft 342 kts 83°